This is the latest recevied weather packets stored in our database for station/object WX7FGZ-6. If no packets are shown the sender has not sent any weather packets the latest 10 day(s).
| Time | Temp. | Humidity | Pressure | Rain* | Wind** | Luminosity | Snow |
|---|---|---|---|---|---|---|---|
| 1778012858 | -3.89° C | 81% | 1012.8 hPa | 0 mm | - | - | - |
| 1778012803 | -3.89° C | 81% | 1012.8 hPa | 0 mm | - | - | - |
| 1778012503 | -3.33° C | 80% | 1012.6 hPa | 0 mm | - | - | - |
| 1778012203 | -2.78° C | 83% | 1012.6 hPa | 0 mm | - | - | - |
| 1778011903 | -2.22° C | 84% | 1012.4 hPa | 0 mm | - | - | - |
| 1778011603 | -1.67° C | 83% | 1012.4 hPa | 0 mm | - | - | - |
| 1778011304 | -1.67° C | 81% | 1012.5 hPa | 0 mm | - | - | - |
| 1778011160 | -1.11° C | 79% | 1012.5 hPa | 0 mm | - | - | - |
| 1778011003 | -1.11° C | 79% | 1012.5 hPa | 0 mm | - | - | - |
| 1778010703 | -1.11° C | 79% | 1012.6 hPa | 0 mm | - | - | - |
| 1778010603 | -1.11° C | 78% | 1012.5 hPa | 0 mm | - | - | - |
| 1778010403 | -1.11° C | 78% | 1012.5 hPa | 0 mm | - | - | - |
| 1778010103 | -1.11° C | 76% | 1013.1 hPa | 0 mm | - | - | - |
| 1778009803 | -0.56° C | 76% | 1013.1 hPa | 0 mm | - | - | - |
| 1778009503 | -1.11° C | 78% | 1013.1 hPa | 0 mm | - | - | - |
| 1778009250 | -0.56° C | 77% | 1013.3 hPa | 0 mm | - | - | - |
| 1778009203 | -0.56° C | 77% | 1013.3 hPa | 0 mm | - | - | - |
| 1778008936 | -0.56° C | 75% | 1013.4 hPa | 0 mm | - | - | - |
| 1778008903 | -0.56° C | 75% | 1013.4 hPa | 0 mm | - | - | - |
| 1778008602 | 0° C | 73% | 1013.4 hPa | 0 mm | - | - | - |
| 1778008302 | 0° C | 73% | 1013.4 hPa | 0 mm | - | - | - |
| 1778008003 | 0° C | 74% | 1013.5 hPa | 0 mm | - | - | - |
| 1778007858 | 0.56° C | 70% | 1013.5 hPa | 0 mm | - | - | - |
| 1778007703 | 0.56° C | 70% | 1013.5 hPa | 0 mm | - | - | - |
| 1778007403 | 0.56° C | 70% | 1013.5 hPa | 0 mm | - | - | - |
* Rain latest hour (hover to see other rain measurements)
** Current wind speed in m/s (hover to see current wind gust speed)